[[{"header":{"parameterUnit":"m.s-1","parameterCategory":1,"la1":30.2991,"la2":30.254,"lo1":-89.0895,"lo2":-89.0444,"dy":0.0017,"dx":0.0017,"nx":28,"ny":28,"refTime":"2024-07-18T21:00:00:Z","depth":0,"parameterNumber":2,"parameterNumberName":"U-component_of_WINDS"},"data":[0,0,0,0,0,0,0,0,0,0,0,0,0,0,0,0,0,0,0,0,0,0,0,0,0,0,0,0,0,0,0,0,0,0,0,0,0,0,0,0,0,0,0,0,0,0,0,0,0,0,0,0,0,0,0,0,0,0,0.6609,0.6608,0,0.6504,0.6502,0.6501,0.6427,0.6426,0.6426,0.6425,0.6314,0.6312,0.6309,0,0,0,0,0,0,0,0,0,0,0,0,0,0.6741,0.6739,0.6609,0.6608,0.6607,0.6504,0.6502,0.6501,0.6427,0.6426,0.6426,0.6425,0.6315,0.6312,0.6309,0,0,0,0,0,0,0,0,0,0,0,0,0,0.6665,0.6739,0.6609,0.6557,0.6552,0.6504,0.6502,0.6501,0.6427,0.6426,0.6425,0.6425,0.6316,0.6312,0.6309,0.6304,0,0,0.6298,0.6296,0,0,0,0,0,0,0,0,0.6669,0.666,0.6566,0.6561,0.6554,0.6478,0.6508,0.6434,0.6427,0.6474,0.6425,0.6424,0.6369,0.6361,0.6343,0.6299,0.6294,0.6297,0.6295,0.6294,0.6293,0,0,0,0,0,0,0,0.6675,0.6664,0.6567,0.6565,0.6558,0.6537,0.6526,0.6494,0.6428,0.647,0.6465,0.6453,0.6366,0.6347,0.634,0.6292,0.6298,0.6294,0.6292,0.6291,0.6233,0.6234,0,0,0,0,0,0,0.6689,0.6669,0.6571,0.6564,0.6611,0.6536,0.6523,0.6503,0.6428,0.6416,0.6454,0.645,0.6353,0.6344,0.6336,0.6321,0.6294,0.629,0.6288,0.6232,0.6233,0.6234,0,0,0,0,0,0,0.6692,0.6681,0.6575,0.6615,0.66,0.6535,0.6513,0.6501,0.6482,0.6416,0.6403,0.6447,0.6352,0.6341,0.6311,0.6317,0.6289,0.6285,0.6232,0.6233,0.6234,0.6296,0,0,0,0,0,0,0.6696,0.6682,0.6681,0.6616,0.6598,0.6554,0.6514,0.65,0.6477,0.6471,0.6406,0.6394,0.6351,0.6317,0.6308,0.6311,0.6282,0.6231,0.6232,0.6233,0.6293,0.6299,0.6304,0,0,0,0,0,0.6701,0.6703,0.6681,0.667,0.6596,0.6555,0.6545,0.6495,0.6478,0.6475,0.6431,0.6396,0.6318,0.6315,0.6304,0.6306,0.623,0.6232,0.6233,0.629,0.6297,0.6303,0,0,0,0,0,0,0.6771,0.6694,0.6669,0.665,0.661,0.6543,0.6538,0.6505,0.6468,0.6464,0.6403,0.6389,0.6365,0.6332,0.633,0.6295,0.627,0.6269,0.6317,0.6323,0.6328,0.6336,0.6279,0,0,0,0,0,0.6784,0.6759,0.6692,0.6682,0.6663,0.6604,0.6584,0.6549,0.6505,0.6487,0.6441,0.6398,0.6363,0.6341,0.6306,0.6288,0.6271,0.6284,0.6289,0.6294,0.6293,0.6277,0.6281,0.6239,0.6239,0.6239,0,0,0.6811,0.6766,0.6753,0.6695,0.6659,0.6632,0.659,0.6564,0.6543,0.6483,0.6451,0.6417,0.6364,0.6339,0.6326,0.6311,0.6301,0.6296,0.63,0.6297,0.6279,0.6284,0.6287,0.624,0.624,0.6239,0,0,0.6846,0.6811,0.6796,0.6761,0.6708,0.6668,0.6665,0.6602,0.6576,0.6544,0.6498,0.647,0.6413,0.6376,0.635,0.6367,0.6333,0.6357,0.6385,0.637,0.6374,0.6376,0.638,0.6382,0.6358,0.6358,0.6358,0,0.6886,0.6845,0.6793,0.6769,0.6743,0.6688,0.6671,0.6639,0.6577,0.6559,0.6544,0.6468,0.6429,0.6393,0.6397,0.6379,0.637,0.6364,0.6378,0.638,0.6381,0.6384,0.6386,0.6361,0.6361,0.636,0.636,0,0.6895,0.6867,0.6862,0.6803,0.6776,0.6756,0.6699,0.6678,0.6645,0.6606,0.6572,0.6523,0.6475,0.6464,0.6432,0.6422,0.6414,0.639,0.6363,0.639,0.6391,0.6392,0.6365,0.6364,0.6363,0.6363,0,0,0.6971,0.6882,0.6881,0.6852,0.6788,0.6764,0.6741,0.6694,0.6676,0.6634,0.661,0.6561,0.6537,0.6507,0.647,0.6457,0.647,0.6433,0.643,0.6439,0.6453,0.6471,0.6473,0.6447,0.6447,0.6447,0.6456,0,0.6994,0.695,0.6901,0.6873,0.6844,0.679,0.6768,0.6725,0.6688,0.6656,0.6614,0.6579,0.6551,0.6532,0.6518,0.6472,0.6471,0.6471,0.6422,0.6421,0.6435,0.6474,0.6493,0.6504,0.6457,0.6457,0.6457,0,0.7016,0.6976,0.6945,0.6881,0.6867,0.6849,0.68,0.6772,0.6721,0.6694,0.666,0.6619,0.6588,0.6566,0.6521,0.6521,0.6498,0.6472,0.6471,0.6463,0.6439,0.6465,0.6507,0.6508,0.6457,0.6457,0.6457,0,0.7071,0.701,0.6983,0.696,0.6885,0.6873,0.6841,0.6789,0.6763,0.672,0.6702,0.6656,0.663,0.6595,0.6542,0.6531,0.6501,0.6475,0.6475,0.6476,0.647,0.6471,0.6508,0.6459,0.6459,0.6459,0.6459,0,0.7101,0.7083,0.7006,0.6989,0.6966,0.691,0.6888,0.6851,0.6805,0.6778,0.6728,0.6703,0.6636,0.6602,0.6561,0.6527,0.6517,0.6492,0.6481,0.6496,0.6498,0.6478,0.6476,0.6459,0.6459,0.6459,0.6459,0,0.7158,0.7107,0.7072,0.7004,0.6986,0.6972,0.6912,0.6892,0.6851,0.6817,0.6806,0.6741,0.6698,0.6642,0.6582,0.6554,0.6525,0.6509,0.6543,0.6536,0.6538,0.6538,0.6562,0.6561,0.6516,0.6516,0.6517,0,0.718,0.7165,0.7094,0.7073,0.7043,0.7009,0.6982,0.6925,0.6898,0.6837,0.6823,0.6777,0.6737,0.6671,0.6617,0.657,0.6551,0.6562,0.6543,0.6557,0.6548,0.6549,0.6545,0.6567,0.6567,0.6568,0.6569,0,0.7222,0.7197,0.7161,0.7115,0.7084,0.7045,0.7003,0.6988,0.6921,0.6893,0.6849,0.6818,0.6756,0.671,0.6655,0.6619,0.6582,0.6575,0.6572,0.6586,0.6605,0.6592,0.6553,0.6574,0.6574,0.6573,0.6573,0.6573,0.726,0.7243,0.7191,0.7151,0.7113,0.7075,0.7052,0.7008,0.6971,0.6916,0.6884,0.6841,0.6786,0.6709,0.6675,0.6638,0.6624,0.6621,0.6619,0.6619,0.6622,0.6613,0.6628,0.6628,0.6628,0.6628,0.6627,0,0.7298,0.7261,0.7225,0.7168,0.7136,0.7105,0.7057,0.7031,0.6994,0.6947,0.6909,0.6856,0.681,0.6752,0.6702,0.6683,0.6664,0.6672,0.6671,0.6663,0.6639,0.6646,0.6687,0.6687,0.6687,0.6687,0.6687,0.6687,0.7314,0.7282,0.725,0.7199,0.7161,0.7119,0.7093,0.7057,0.7019,0.6963,0.6925,0.6888,0.6835,0.678,0.6735,0.6719,0.6701,0.6713,0.6692,0.6671,0.6665,0.666,0.6666,0.6711,0.6711,0.6718,0.6718,0.6718]},{"header":{"parameterUnit":"m.s-1","parameterCategory":1,"la1":30.2991,"la2":30.254,"lo1":-89.0895,"lo2":-89.0444,"dy":0.0017,"dx":0.0017,"nx":28,"ny":28,"refTime":"2024-07-18T21:00:00:Z","depth":0,"parameterNumber":3,"parameterNumberName":"V-component_of_WINDS"},"data":[0,0,0,0,0,0,0,0,0,0,0,0,0,0,0,0,0,0,0,0,0,0,0,0,0,0,0,0,0,0,0,0,0,0,0,0,0,0,0,0,0,0,0,0,0,0,0,0,0,0,0,0,0,0,0,0,0,0,3.8532,3.8532,0,3.8591,3.8592,3.8592,3.8529,3.8526,3.8524,3.8522,3.8578,3.8582,3.8586,0,0,0,0,0,0,0,0,0,0,0,0,0,3.8357,3.8361,3.8531,3.8532,3.8533,3.8591,3.8592,3.8593,3.8529,3.8526,3.8523,3.852,3.8577,3.8581,3.8586,0,0,0,0,0,0,0,0,0,0,0,0,0,3.8426,3.8362,3.8531,3.8508,3.8507,3.8591,3.8592,3.8593,3.853,3.8526,3.8522,3.8519,3.8576,3.8581,3.8587,3.8695,0,0,3.8604,3.8606,0,0,0,0,0,0,0,0,3.8422,3.8433,3.8511,3.851,3.8509,3.8549,3.8551,3.8627,3.8531,3.8521,3.8521,3.8517,3.8571,3.8577,3.8596,3.8697,3.87,3.8604,3.8608,3.861,3.8612,0,0,0,0,0,0,0,3.8418,3.843,3.8555,3.8512,3.8511,3.8493,3.8499,3.8565,3.8566,3.8522,3.8517,3.8525,3.857,3.8591,3.8597,3.8701,3.8604,3.8609,3.8613,3.8615,3.889,3.8893,0,0,0,0,0,0,3.8416,3.8426,3.8553,3.8557,3.8456,3.8499,3.8506,3.854,3.8565,3.8565,3.8528,3.8522,3.8583,3.859,3.8599,3.8724,3.861,3.8616,3.8619,3.8886,3.889,3.8895,0,0,0,0,0,0,3.8413,3.8428,3.8551,3.849,3.8505,3.8506,3.8545,3.8543,3.8563,3.857,3.8569,3.855,3.858,3.8591,3.8671,3.8725,3.8618,3.8623,3.8881,3.8887,3.8893,3.8977,0,0,0,0,0,0,3.8408,3.8427,3.847,3.8492,3.8508,3.8624,3.8548,3.8546,3.8574,3.8566,3.859,3.859,3.8578,3.8663,3.8676,3.8731,3.8628,3.8876,3.8884,3.8891,3.897,3.8985,3.8999,0,0,0,0,0,3.8402,3.8491,3.8472,3.8488,3.8562,3.8627,3.8636,3.8621,3.8579,3.862,3.8624,3.859,3.8718,3.8671,3.8686,3.8743,3.8873,3.8882,3.889,3.8963,3.8982,3.8999,0,0,0,0,0,0,3.8475,3.8494,3.8473,3.8572,3.8599,3.8616,3.8668,3.8643,3.8681,3.8672,3.8651,3.8656,3.8741,3.875,3.8699,3.8847,3.8788,3.88,3.8838,3.8856,3.8871,3.8865,3.8632,0,0,0,0,0,3.8502,3.8556,3.8569,3.8655,3.8669,3.8667,3.8695,3.8681,3.8707,3.8717,3.8727,3.8752,3.8797,3.8828,3.887,3.8971,3.8974,3.9018,3.9032,3.9044,3.9054,3.9105,3.9124,3.8923,3.8923,3.8923,0,0,3.856,3.8577,3.8612,3.867,3.8689,3.8742,3.8677,3.8737,3.8775,3.8726,3.8802,3.881,3.8836,3.8926,3.8967,3.8937,3.911,3.9055,3.9065,3.9068,3.9116,3.9135,3.9152,3.8929,3.8928,3.8927,0,0,3.8691,3.8711,3.8784,3.8804,3.8833,3.883,3.8848,3.8869,3.8873,3.8949,3.8912,3.8957,3.9037,3.9056,3.9076,3.9214,3.9182,3.9228,3.9303,3.9353,3.9369,3.9383,3.9429,3.9446,3.9238,3.9239,3.9239,0,3.8758,3.8839,3.8824,3.8886,3.8911,3.887,3.8942,3.8962,3.9003,3.902,3.8987,3.9084,3.9099,3.9192,3.9225,3.9244,3.9261,3.9224,3.9368,3.9382,3.9395,3.9438,3.9456,3.9244,3.9243,3.9243,3.9242,0,3.8919,3.8975,3.903,3.9071,3.9103,3.917,3.9162,3.9196,3.9179,3.9179,3.9255,3.9272,3.9316,3.9337,3.9322,3.9427,3.9407,3.9372,3.9311,3.9419,3.9459,3.9476,3.9251,3.9249,3.9248,3.9246,0,0,3.9097,3.9129,3.9149,3.9166,3.9195,3.9237,3.93,3.9344,3.9372,3.9402,3.9452,3.952,3.9486,3.9509,3.9495,3.954,3.9643,3.9498,3.9498,3.9522,3.9757,3.9782,3.9802,3.9624,3.9627,3.9629,3.9754,0,3.9227,3.9339,3.9326,3.9431,3.9481,3.9442,3.9497,3.9519,3.9521,3.9562,3.9563,3.961,3.9564,3.9577,3.962,3.9622,3.969,3.9613,3.9668,3.967,3.966,3.9823,3.9851,3.9967,3.977,3.9773,3.9775,0,3.9393,3.9429,3.954,3.9559,3.9579,3.9629,3.9666,3.9707,3.9731,3.9728,3.9754,3.9732,3.9792,3.9732,3.9814,3.9762,3.9784,3.9788,3.9793,3.9795,3.9727,3.9828,4.0004,4.0021,3.98,3.9798,3.9796,0,3.9509,3.9585,3.966,3.9676,3.9701,3.9736,3.9748,3.9768,3.9794,3.9827,3.9843,3.9882,3.9903,3.9933,3.992,3.9878,4.0004,3.9943,4.0001,4.0002,4.0028,4.0026,4.0208,4.0047,4.0046,4.0046,4.0046,0,3.9653,3.9722,3.9712,3.9758,3.9832,3.9816,3.989,3.9896,3.9914,3.9959,3.9928,3.9971,3.9953,3.9994,3.9985,4.0053,4.0063,4.0061,4.0057,4.0063,4.0062,4.0075,4.0065,4.0051,4.005,4.0049,4.0048,0,3.9794,3.9791,3.987,3.9886,3.9892,3.9946,3.9959,4.0001,4.0,4.0057,4.007,4.0068,4.0114,4.0105,4.0156,4.015,4.0234,4.0221,4.0226,4.0222,4.028,4.0274,4.0474,4.0498,4.0324,4.0325,4.0327,0,3.9886,3.9937,3.996,3.9988,4.0002,4.0049,4.0075,4.006,4.0089,4.0119,4.0156,4.02,4.0234,4.0309,4.0311,4.0349,4.0335,4.0403,4.0341,4.0343,4.0333,4.0329,4.0333,4.0415,4.0417,4.0418,4.042,0,4.0048,4.0043,4.0083,4.0122,4.0155,4.0185,4.0211,4.0236,4.0223,4.0256,4.0304,4.033,4.0382,4.0424,4.0459,4.0469,4.0441,4.0439,4.0454,4.0459,4.0458,4.0457,4.0257,4.0434,4.0433,4.0432,4.0431,4.043,4.0165,4.0208,4.0229,4.0274,4.0293,4.0318,4.0358,4.0362,4.0401,4.0443,4.0431,4.0484,4.0504,4.0548,4.0562,4.0602,4.0576,4.0599,4.0604,4.0609,4.0615,4.0454,4.0608,4.0608,4.0607,4.0607,4.0607,0,4.0322,4.0334,4.0376,4.0414,4.0449,4.0422,4.0449,4.0479,4.0527,4.0548,4.0582,4.0635,4.0675,4.0681,4.0719,4.0749,4.0737,4.0759,4.0756,4.0758,4.0637,4.0619,4.0768,4.0768,4.0768,4.0768,4.0768,4.0768,4.0408,4.0479,4.0476,4.0555,4.0566,4.0618,4.0635,4.0658,4.0674,4.0735,4.0769,4.0772,4.0786,4.0825,4.086,4.086,4.0875,4.0901,4.0896,4.0783,4.0767,4.0751,4.0734,4.0905,4.0905,4.1014,4.1015,4.1015]}]]